User: anonymous   Login
Location: Grange Rosano
(44.4500°N, 6.9667°E)
Time: 08:43:50
(UTC+00:00)
Language:

Cosmos 1674 - Orbit

View from above orbital plane
View from above orbital plane
View from above satellite
View from above satellite

Ground track
Ground track

The orbit data is extracted from the following two-line orbital elements,

1 15944U 85069A   22222.76774010  .00004547  00000-0  19303-3 0  9992
2 15944  82.5080 162.3627 0017550  57.3504 302.9423 15.22685679 23387
Epoch (UTC): 10 August 2022 18:25:32
Eccentricity: 0.0017550
inclination: 82.5080°
perigee height: 485 km
apogee height: 510 km
right ascension of ascending node: 162.3627°
argument of perigee: 57.3504°
revolutions per day: 15.22685679
mean anomaly at epoch: 302.9423°
orbit number at epoch: 2338

The dashed part of the orbit path shows where the satellite is in the earth's shadow,  

DLR